Wind_Speed
5 3 2 1 2 3 4 5 6 2 2 3 2 2 3 7 9 9 10 10 13 15 10 9 11 12 13 17 7 11 15 23 20 24 25 19 17 13
5 4 3 3 4 2 1 2 4 4 2 2 2 3 5 5 10 8 8 7 8 11 8 9 10 10 11 12 11 11 11 16 10 12 15 13 11 12
1 2 3 2 1 1 2 2 2 3 4 1 3 5 4 4 6 6 7 6 6 6 7 6 6 6 6 8 8 10 9 8 9 11 11 10 10 10
2 4 4 4 4 3 2 2 1 0 1 0 2 5 4 6 5 6 7 6 6 8 6 5 4 5 4 4 3 2 0 2 4 6 7 7 7 8
5 6 6 5 6 5 4 5 4 3 3 2 1 2 2 4 3 5 5 6 6 9 8 7 6 4 3 2 3 3 4 4 5 6 7 6 8 9
8 8 9 8 7 6 7 6 5 3 2 1 2 2 2 5 6 7 5 5 6 6 8 10 8 7 5 5 4 4 5 6 6 7 8 8 10 10
7 7 8 7 6 6 5 4 4 3 4 3 2 3 3 5 7 7 7 8 6 7 6 5 7 4 6 6 5 5 7 8 9 9 8 6 6 7
5 5 5 4 5 5 5 5 5 4 4 3 2 4 3 4 5 5 7 7 4 7 10 10 8 7 6 6 10 11 10 10 10 10 11 10 9 10
5 4 4 5 5 5 6 5 5 4 4 4 4 4 4 4 5 6 5 6 7 11 11 6 6 7 6 7 12 12 9 9 9 8 9 9 9 10
5 3 4 3 1 3 3 3 2 2 2 3 3 1 1 1 3 5 6 8 9 4 7 4 8 7 8 6 11 10 6 6 6 6 6 7 7 9
3 2 2 2 2 3 3 4 2 1 4 3 4 5 5 6 6 4 5 6 7 1 4 4 8 13 9 6 5 8 5 5 4 4 6 8 9 11
1 2 1 2 2 2 1 2 3 2 2 2 4 6 5 4 2 1 2 3 4 5 2 6 8 9 7 3 7 7 7 5 8 7 9 11 10 12
3 3 4 4 2 2 2 2 2 3 3 4 4 2 2 2 1 1 1 0 3 5 5 5 5 7 5 8 14 9 10 10 7 8 8 9 11 13
4 4 6 5 4 4 2 3 4 3 3 4 4 3 3 3 3 5 6 6 7 9 11 9 6 7 10 12 10 9 11 12 15 15 11 10 12 14
6 7 9 6 5 5 5 5 5 3 5 5 5 5 5 7 9 7 7 7 9 10 11 11 14 13 14 13 14 15 15 8 17 18 16 13 11 13
10 9 7 7 7 7 8 6 5 5 6 6 7 6 7 8 7 7 8 8 10 10 8 10 11 13 16 16 17 20 17 12 8 13 15 19 21 21
9 8 8 7 7 6 7 7 7 7 8 7 8 8 8 8 9 9 10 10 11 11 11 11 12 12 16 19 22 24 24 21 19 19 17 19 20 20
11 11 11 11 10 9 8 8 9 9 10 9 9 10 10 10 10 10 11 12 13 13 13 11 11 14 17 18 19 25 20 19 16 15 15 19 21 20
15 14 14 13 12 11 11 12 12 11 11 13 12 12 11 12 11 12 13 13 15 15 15 13 12 12 10 8 12 15 22 20 19 20 20 22 24 26
20 18 17 15 14 14 14 14 14 13 13 13 12 13 13 13 13 14 14 15 15 15 15 14 15 16 15 13 12 20 20 24 25 25 24 25 27 27
21 21 21 19 18 17 16 16 16 16 15 15 15 15 16 15 16 16 16 16 16 17 17 16 16 15 17 17 18 23 24 21 22 27 27 22 23 25
21 22 21 20 19 18 17 17 17 17 17 18 18 17 17 16 17 18 18 17 16 17 19 18 18 18 19 18 21 23 25 26 25 24 26 30 25 9
24 25 23 22 20 19 19 19 20 20 19 18 18 18 18 19 19 19 19 17 18 18 18 19 18 18 19 20 23 23 26 29 27 25 29 26 27 33
Wind_Direction
270 260 234 197 205 222 240 225 256 261 247 96 139 280 347 325 331 348 344 6 22 31 24 6 345 333 332 8 347 214 213 229 217 178 181 208 221 209
257 253 259 272 287 305 290 225 242 262 258 63 283 304 339 1 335 355 354 0 17 30 27 28 9 14 21 40 52 87 107 133 136 169 170 182 195 216
312 268 261 254 151 118 134 141 159 201 235 262 285 314 333 358 1 5 357 342 344 14 16 358 354 6 26 51 84 105 122 142 161 172 177 191 216 228
91 105 97 98 100 85 83 95 163 30 185 107 320 343 332 355 2 3 3 358 356 330 335 321 349 10 358 7 18 1 283 201 215 222 224 229 228 229
98 105 87 86 83 70 70 56 37 27 8 311 304 347 339 353 349 359 351 8 352 351 348 329 316 321 333 314 285 279 267 259 252 246 248 231 210 207
89 85 83 84 76 54 55 37 29 27 16 22 9 337 335 333 356 4 0 345 328 343 346 348 1 354 330 305 287 262 242 235 228 229 236 243 250 244
105 97 89 75 74 87 88 53 40 35 38 20 22 345 21 1 4 345 339 333 315 333 344 335 339 339 332 348 339 281 257 249 244 240 244 248 245 252
122 104 85 77 60 56 56 49 52 61 47 47 8 8 38 356 356 349 345 352 343 9 343 318 311 327 315 299 284 291 277 266 261 259 258 259 262 263
116 98 88 68 66 50 34 46 30 33 61 61 25 39 358 356 343 352 340 333 315 320 336 326 342 344 329 326 309 313 294 283 274 274 268 261 255 250
100 78 72 68 37 56 43 43 32 46 62 58 69 31 322 305 311 309 315 310 311 291 343 292 342 335 318 325 311 326 306 295 286 278 272 266 258 254
144 126 108 51 360 14 27 25 8 353 333 337 309 294 283 280 274 291 306 326 318 24 350 337 337 330 313 302 312 349 345 306 291 257 253 257 255 255
221 257 225 174 294 314 339 341 339 3 297 332 318 322 341 314 316 198 290 294 319 305 3 0 339 355 328 315 341 324 311 313 320 286 266 246 247 250
228 244 263 266 282 286 264 287 308 295 302 322 308 299 305 270 186 253 275 187 277 273 320 339 306 321 299 307 315 306 301 303 293 284 279 278 263 255
251 246 249 262 272 272 272 273 276 287 296 292 286 271 257 252 270 264 261 255 245 259 268 281 272 280 286 294 284 315 307 289 290 294 292 283 270 265
248 243 241 266 285 295 289 266 274 284 274 276 275 269 259 254 268 297 296 295 290 290 276 264 262 268 268 267 276 290 310 304 284 285 283 284 291 285
249 257 251 253 267 260 272 285 281 253 257 261 268 265 262 274 283 276 276 285 289 290 287 271 282 260 264 264 271 278 277 270 280 282 281 281 278 273
230 240 248 253 257 261 265 267 259 261 261 260 258 263 263 263 265 268 273 277 276 285 285 284 285 279 269 272 272 268 272 272 274 279 280 277 276 277
220 230 238 241 244 250 253 257 255 251 250 250 251 253 256 260 266 269 272 273 272 277 280 276 271 280 293 292 262 266 273 276 285 286 281 278 279 277
228 234 240 241 245 250 251 249 250 249 248 242 245 250 253 256 261 266 269 270 272 274 273 273 264 266 275 274 274 260 269 281 285 284 279 273 273 279
233 236 239 241 242 247 252 251 252 249 252 257 252 253 254 253 254 256 258 260 263 269 273 268 263 262 252 260 270 274 272 274 275 277 277 281 280 284
233 237 242 246 252 257 257 252 251 249 250 249 253 253 253 252 255 256 258 262 265 266 266 269 265 271 270 275 271 275 284 287 282 274 280 277 283 289
237 241 247 254 257 258 259 257 254 251 251 250 256 256 256 256 257 260 260 259 260 261 268 274 279 279 274 260 267 279 287 291 289 279 267 262 260 265
239 245 249 254 260 262 262 259 256 256 255 256 256 257 258 256 258 260 259 258 261 262 268 274 276 276 269 265 270 275 279 283 285 286 284 279 267 264
Height
813 813 812 812 812 812 813 814 816 815 814 818 817 817 818 817 816 815 813 810 810 809 807 806 805 803 802 800 794 793 797 803 808 813 819 824 828 830
812 812 812 812 812 812 813 814 815 815 814 815 817 817 816 815 814 814 813 812 810 809 809 807 807 805 803 802 803 801 803 804 809 815 819 822 824 827
811 810 811 812 813 813 813 813 813 814 814 814 814 814 816 815 815 814 813 812 810 810 810 809 808 808 807 806 806 807 807 810 813 816 818 820 822 825
812 811 811 812 813 814 815 813 814 813 813 813 814 815 815 814 814 813 813 812 812 810 810 809 809 809 808 807 808 809 811 812 814 816 817 819 822 824
812 811 811 812 813 813 814 815 815 814 815 815 815 816 816 814 814 812 812 812 813 811 810 809 809 809 808 808 808 809 810 811 813 815 816 817 819 820
813 815 810 812 812 815 812 817 815 816 815 815 816 817 817 816 815 814 814 814 813 813 812 810 809 809 808 808 808 809 810 811 812 813 815 815 816 816
814 814 812 813 813 814 814 817 816 816 815 815 816 816 817 817 817 816 815 814 813 812 811 811 810 810 809 808 807 807 808 809 810 811 811 813 814 814
816 816 815 814 814 815 815 816 816 815 815 816 816 815 817 818 817 817 817 815 814 812 810 809 809 808 808 807 806 805 806 806 807 808 809 809 810 812
816 817 815 815 816 817 816 816 816 816 815 816 816 816 817 818 818 818 817 817 815 813 811 809 808 808 807 806 804 803 802 802 803 804 805 806 808 809
815 818 817 817 816 818 816 817 817 817 816 816 816 817 817 817 817 818 817 816 814 813 812 811 809 808 806 806 804 802 801 801 801 802 803 804 805 806
815 816 817 817 817 817 817 817 817 816 817 816 816 816 815 815 815 816 817 816 814 813 813 813 810 807 805 804 804 802 801 800 800 800 801 803 803 804
815 816 816 817 817 817 816 816 816 815 817 816 817 816 815 814 814 814 815 816 816 814 814 814 812 810 806 804 803 802 801 801 799 799 799 800 801 801
815 816 816 816 816 816 814 815 816 815 816 816 815 815 814 815 815 814 814 815 816 815 814 814 813 812 811 807 802 800 799 798 798 797 798 798 798 798
815 815 816 814 814 814 813 814 813 813 814 815 814 814 813 814 814 813 813 813 813 813 812 812 812 811 810 808 804 800 799 797 795 794 793 793 793 794
813 814 814 813 812 812 811 812 811 811 812 812 812 812 812 811 812 811 811 810 810 809 809 809 808 808 807 806 803 800 798 794 793 792 791 790 790 790
811 811 812 811 810 810 809 809 809 810 810 810 810 810 810 809 809 809 809 809 808 807 806 805 804 804 802 801 800 796 796 795 790 790 790 788 786 785
809 809 809 809 809 808 808 807 807 808 808 808 808 808 807 807 807 807 807 807 806 805 803 802 801 800 799 797 794 791 789 787 787 786 785 783 781 780
805 806 806 806 806 805 805 805 805 805 806 806 805 805 804 804 804 804 804 803 802 801 800 800 799 798 795 789 786 784 784 783 782 782 781 778 775 774
801 801 802 802 801 801 801 801 801 802 802 802 802 802 801 801 801 800 800 800 798 797 796 796 796 795 793 789 784 783 780 779 778 776 775 773 769 767
796 796 796 797 797 796 797 797 797 797 797 797 797 797 798 797 796 796 796 795 794 793 792 792 791 791 789 785 781 777 779 776 774 770 768 765 762 760
790 790 791 791 791 791 791 792 792 792 792 792 792 792 793 792 791 791 791 791 790 789 787 786 785 784 782 780 776 770 769 769 767 764 762 760 756 752
783 783 784 785 785 786 786 786 787 787 787 787 786 787 787 787 786 786 786 785 785 784 782 780 780 779 777 775 771 767 763 760 759 757 756 754 752 746
775 776 777 778 779 779 780 780 780 780 781 781 781 781 781 781 781 781 781 780 779 778 777 775 774 774 771 770 766 761 758 753 751 747 743 742 740 737